Location: Luxembourg
(49.6117°N, 6.1300°E)
Time: 10:36:14
(UTC+02:00)

N. Korean satellite - Pass Details

Date: 31 January 2019
Orbit: 457 x 508 km, 97.2° (Epoch: 19 April)

Event Time Altitude Azimuth Distance (km) Brightness Sun altitude
Rises 18:14:24 0° 179° (S) 2,599 10.5 -7.7°
Reaches altitude 10° 18:16:31 10° 185° (S) 1,722 9.7 -8.0°
Maximum altitude 18:20:08 48° 261° (W) 679 7.9 -8.6°
Drops below altitude 10° 18:23:46 10° 337° (NNW) 1,740 9.5 -9.1°
Sets 18:25:56 0° 343° (NNW) 2,629 10.3 -9.5°
